[[{"header":{"parameterUnit":"m.s-1","parameterCategory":2,"la1":30.2991,"la2":30.254,"lo1":-89.0895,"lo2":-89.0444,"dy":0.0017,"dx":0.0017,"nx":28,"ny":28,"refTime":"2025-07-08T03:00:00:Z","depth":"0","parameterNumber":2,"parameterNumberName":"U-component_of_CURRENTS"},"data":[0,0,0,0,0,0,0,0,0,0,0,0,0,0,0,0,0,0,0,0,0,0,0,0,0,0,0,0,0,0,0,0,0,0,0,0,0,0,0,0,0,0,0,0,0,0,0,0,0,0,0,0,0,0,0,0,0,0,0.3605,0.3606,0,0.3691,0.3692,0.3693,0.3691,0.369,0.3689,0.3688,0.375,0.3753,0.3755,0,0,0,0,0,0,0,0,0,0,0,0,0,0.3532,0.3533,0.3604,0.3606,0.3607,0.3691,0.3692,0.3693,0.3691,0.369,0.3689,0.3688,0.3749,0.3752,0.3755,0,0,0,0,0,0,0,0,0,0,0,0,0,0.3583,0.3533,0.3604,0.3618,0.362,0.3691,0.3692,0.3693,0.3691,0.369,0.3689,0.3687,0.3748,0.3752,0.3756,0.3809,0,0,0.3767,0.3769,0,0,0,0,0,0,0,0,0.358,0.3586,0.3615,0.3617,0.362,0.3681,0.3689,0.3731,0.3692,0.3662,0.3688,0.3687,0.3727,0.3733,0.3749,0.3811,0.3814,0.3768,0.377,0.3772,0.3773,0,0,0,0,0,0,0,0.3577,0.3582,0.3637,0.3616,0.3619,0.3652,0.3657,0.3698,0.37,0.3665,0.3665,0.3679,0.3728,0.3746,0.3751,0.3815,0.3768,0.3771,0.3773,0.3775,0.3925,0.3926,0,0,0,0,0,0,0.3567,0.3579,0.3634,0.3639,0.3598,0.3654,0.3659,0.3661,0.37,0.3705,0.368,0.3678,0.374,0.3746,0.3753,0.3847,0.3772,0.3775,0.3778,0.3923,0.3925,0.3927,0,0,0,0,0,0,0.3565,0.3571,0.363,0.3613,0.3623,0.3657,0.3659,0.3663,0.3686,0.3712,0.3716,0.3698,0.3739,0.3748,0.3808,0.3848,0.3777,0.3781,0.3921,0.3924,0.3926,0.4015,0,0,0,0,0,0,0.3562,0.3569,0.3569,0.3612,0.3624,0.3695,0.3661,0.3666,0.3697,0.3696,0.3729,0.3733,0.3739,0.3803,0.3812,0.3852,0.3784,0.3919,0.3922,0.3925,0.401,0.4021,0.403,0,0,0,0,0,0.3559,0.3576,0.3568,0.3575,0.3622,0.3698,0.3708,0.3725,0.3699,0.3733,0.3748,0.3732,0.3828,0.3809,0.3819,0.386,0.3917,0.3921,0.3925,0.4006,0.4019,0.4029,0,0,0,0,0,0,0.355,0.3579,0.3571,0.3594,0.3649,0.3698,0.3728,0.3734,0.3773,0.376,0.3769,0.3777,0.3842,0.384,0.3817,0.3909,0.3865,0.3871,0.3923,0.3935,0.3944,0.3958,0.3787,0,0,0,0,0,0.3546,0.356,0.3605,0.3628,0.3653,0.3688,0.3717,0.3731,0.377,0.3784,0.3805,0.3825,0.3868,0.3891,0.3924,0.3986,0.4033,0.4012,0.4022,0.403,0.4048,0.4175,0.4199,0.3939,0.3939,0.3939,0,0,0.3551,0.3567,0.3577,0.3628,0.3661,0.3717,0.3702,0.3756,0.3802,0.3787,0.3849,0.3867,0.3892,0.396,0.3987,0.3963,0.4129,0.4035,0.4042,0.4056,0.4182,0.4207,0.423,0.3942,0.3942,0.3941,0,0,0.3582,0.3583,0.3611,0.3658,0.3714,0.3744,0.3761,0.3816,0.3841,0.3905,0.3905,0.3953,0.4003,0.4044,0.4066,0.415,0.4178,0.4146,0.4211,0.4335,0.4358,0.4379,0.4477,0.4506,0.4149,0.4149,0.4149,0,0.3586,0.3623,0.3639,0.3688,0.3736,0.3756,0.3819,0.3858,0.3924,0.397,0.3931,0.404,0.4048,0.4159,0.4175,0.4175,0.4244,0.4167,0.4352,0.4373,0.4393,0.4489,0.452,0.4154,0.4153,0.4152,0.4152,0,0.3642,0.368,0.3711,0.3768,0.3822,0.3886,0.3941,0.3997,0.4011,0.4049,0.4149,0.4169,0.4238,0.424,0.423,0.4375,0.4377,0.4354,0.4328,0.4426,0.4519,0.455,0.416,0.4159,0.4157,0.4156,0,0,0.3646,0.3729,0.3743,0.3799,0.3872,0.3937,0.4017,0.4124,0.4208,0.4233,0.4352,0.4386,0.4392,0.4417,0.4419,0.4503,0.4685,0.4488,0.4492,0.4596,0.4967,0.49,0.4926,0.471,0.4715,0.472,0.4977,0,0.3695,0.3791,0.382,0.3943,0.4014,0.4069,0.4163,0.4253,0.4314,0.4434,0.4458,0.4557,0.4463,0.4514,0.4582,0.4678,0.477,0.4618,0.4847,0.4853,0.4792,0.4961,0.4688,0.489,0.5007,0.5012,0.5016,0,0.3771,0.3817,0.3924,0.4068,0.4106,0.4175,0.4348,0.4436,0.4584,0.4636,0.4711,0.4737,0.4858,0.4761,0.496,0.4875,0.4928,0.4975,0.4986,0.4915,0.4845,0.4809,0.4941,0.4781,0.5063,0.506,0.5056,0,0.383,0.3927,0.4013,0.4055,0.4189,0.4264,0.4352,0.4499,0.4598,0.4778,0.4865,0.4982,0.5068,0.5157,0.5195,0.5123,0.5421,0.5337,0.5325,0.532,0.5127,0.5095,0.5136,0.5499,0.5499,0.5498,0.5497,0,0.3932,0.4014,0.404,0.4111,0.4234,0.4316,0.4481,0.4598,0.4752,0.4889,0.4967,0.509,0.5176,0.5313,0.5327,0.5435,0.5533,0.539,0.5407,0.5147,0.5116,0.4993,0.4934,0.5508,0.5505,0.5504,0.5502,0,0.405,0.406,0.4174,0.4261,0.4282,0.439,0.4533,0.4654,0.4802,0.4988,0.5052,0.5235,0.542,0.5491,0.5675,0.5613,0.5562,0.5721,0.5394,0.5367,0.5155,0.511,0.507,0.493,0.5772,0.5772,0.5772,0,0.4132,0.4189,0.4263,0.4292,0.4333,0.4445,0.4529,0.4676,0.4788,0.5057,0.5157,0.5385,0.5488,0.5733,0.5718,0.579,0.56,0.5577,0.5369,0.516,0.5126,0.4936,0.4806,0.5155,0.515,0.5147,0.5143,0,0.4281,0.4293,0.4367,0.4377,0.4439,0.4514,0.4632,0.4698,0.4883,0.5012,0.5178,0.5278,0.5508,0.546,0.5582,0.5572,0.5287,0.5498,0.5376,0.4747,0.4452,0.4316,0.4963,0.5108,0.5111,0.5114,0.5116,0.5117,0.4371,0.4414,0.4435,0.445,0.4501,0.4516,0.4518,0.4621,0.472,0.4802,0.5039,0.506,0.5163,0.5276,0.5273,0.5064,0.5084,0.4849,0.4851,0.4708,0.4441,0.5012,0.5107,0.511,0.5113,0.5116,0.5118,0,0.4382,0.4405,0.4467,0.4443,0.4435,0.4466,0.4514,0.4443,0.4428,0.4564,0.4617,0.4621,0.4607,0.4663,0.4589,0.442,0.4199,0.4287,0.3929,0.3863,0.4456,0.4289,0.4094,0.4094,0.4094,0.4094,0.4095,0.4095,0.4388,0.4394,0.4386,0.4316,0.4291,0.4163,0.4122,0.4047,0.4051,0.3938,0.3875,0.395,0.4173,0.4229,0.4047,0.3936,0.3637,0.3458,0.3524,0.3894,0.3942,0.3989,0.3817,0.3525,0.3525,0.2688,0.2682,0.2677]},{"header":{"parameterUnit":"m.s-1","parameterCategory":2,"la1":30.2991,"la2":30.254,"lo1":-89.0895,"lo2":-89.0444,"dy":0.0017,"dx":0.0017,"nx":28,"ny":28,"refTime":"2025-07-08T03:00:00:Z","depth":"0","parameterNumber":3,"parameterNumberName":"V-component_of_CURRENTS"},"data":[0,0,0,0,0,0,0,0,0,0,0,0,0,0,0,0,0,0,0,0,0,0,0,0,0,0,0,0,0,0,0,0,0,0,0,0,0,0,0,0,0,0,0,0,0,0,0,0,0,0,0,0,0,0,0,0,0,0,0.018,0.018,0,0.0147,0.0147,0.0146,0.011,0.0109,0.0108,0.0108,0.0033,0.0032,0.0031,0,0,0,0,0,0,0,0,0,0,0,0,0,0.0207,0.0207,0.018,0.018,0.0179,0.0147,0.0147,0.0146,0.011,0.0109,0.0108,0.0108,0.0034,0.0032,0.003,0,0,0,0,0,0,0,0,0,0,0,0,0,0.0187,0.0207,0.018,0.0157,0.0155,0.0147,0.0146,0.0146,0.011,0.0109,0.0108,0.0107,0.0034,0.0032,0.003,0.0032,0,0,0.0023,0.0022,0,0,0,0,0,0,0,0,0.0188,0.0186,0.0161,0.0159,0.0156,0.0132,0.0129,0.0106,0.011,0.0127,0.0108,0.0107,0.0063,0.0058,0.0055,0.0029,0.0026,0.0023,0.0022,0.0021,0.002,0,0,0,0,0,0,0,0.0189,0.0187,0.0167,0.0161,0.0158,0.0147,0.0143,0.0124,0.0099,0.0125,0.0123,0.0119,0.0061,0.0057,0.0052,0.0025,0.0023,0.0021,0.002,0.0019,0.0006,0.0007,0,0,0,0,0,0,0.0195,0.0188,0.0168,0.0166,0.017,0.0147,0.0143,0.014,0.01,0.0093,0.012,0.0118,0.0061,0.0055,0.005,0.0076,0.0021,0.0019,0.0017,0.0005,0.0007,0.0008,0,0,0,0,0,0,0.0195,0.0193,0.0169,0.0176,0.0172,0.0147,0.0145,0.014,0.0134,0.0096,0.0089,0.0118,0.006,0.0053,0.0041,0.0072,0.0018,0.0016,0.0004,0.0006,0.0007,0.0112,0,0,0,0,0,0,0.0196,0.0194,0.0196,0.0177,0.0172,0.0181,0.0145,0.014,0.0133,0.0129,0.0093,0.0085,0.0059,0.0044,0.0038,0.0068,0.0014,0.0003,0.0005,0.0007,0.0108,0.0117,0.0125,0,0,0,0,0,0.0197,0.0217,0.0197,0.0194,0.0176,0.0182,0.018,0.0158,0.0134,0.0146,0.0115,0.0086,0.0052,0.0043,0.0036,0.0066,0.0002,0.0004,0.0007,0.0104,0.0115,0.0125,0,0,0,0,0,0,0.0235,0.0214,0.0192,0.0203,0.0195,0.0176,0.0184,0.0163,0.0148,0.0139,0.0096,0.0088,0.0088,0.006,0.0052,0.0066,0.0023,0.0024,0.0099,0.011,0.0119,0.0157,0.0012,0,0,0,0,0,0.0241,0.0246,0.0225,0.0234,0.0231,0.0204,0.0202,0.0187,0.0169,0.0162,0.0135,0.0107,0.0093,0.0088,0.0067,0.0076,0.006,0.009,0.0099,0.0107,0.0133,0.0146,0.0159,0.0015,0.0015,0.0015,0,0,0.0258,0.0247,0.0249,0.0242,0.023,0.0252,0.0202,0.0207,0.0226,0.0156,0.0171,0.0133,0.01,0.0111,0.011,0.0093,0.0134,0.011,0.0117,0.0139,0.015,0.0164,0.0177,0.0017,0.0016,0.0016,0,0,0.0308,0.0283,0.0308,0.0312,0.0301,0.0287,0.029,0.0272,0.0264,0.0267,0.0225,0.0214,0.0183,0.0182,0.0172,0.0219,0.0176,0.02,0.0285,0.0298,0.031,0.0321,0.03,0.0308,0.0212,0.0212,0.0212,0,0.033,0.0358,0.0319,0.0352,0.037,0.0309,0.0355,0.034,0.0321,0.0335,0.0285,0.027,0.0228,0.0269,0.0275,0.0244,0.0227,0.0249,0.0312,0.0323,0.0332,0.0308,0.0316,0.0217,0.0217,0.0216,0.0216,0,0.0401,0.0429,0.0449,0.0468,0.0479,0.0509,0.0486,0.0487,0.0454,0.0449,0.0464,0.0407,0.0405,0.0384,0.0337,0.039,0.0346,0.0318,0.0291,0.0354,0.0322,0.0329,0.0225,0.0223,0.0222,0.022,0,0,0.0445,0.0492,0.0499,0.054,0.0548,0.0568,0.0597,0.0624,0.0663,0.0618,0.0681,0.0627,0.0588,0.0574,0.0517,0.0521,0.0545,0.0449,0.0447,0.0439,0.055,0.0503,0.0504,0.0527,0.0529,0.0531,0.0494,0,0.0518,0.0607,0.0612,0.0704,0.0752,0.073,0.0775,0.0786,0.0775,0.0815,0.0761,0.0788,0.0663,0.0669,0.0646,0.0588,0.057,0.0556,0.0481,0.0479,0.044,0.0514,0.0465,0.0429,0.05,0.0501,0.0502,0,0.0594,0.0645,0.0748,0.084,0.086,0.0907,0.0973,0.1007,0.1035,0.1032,0.1031,0.0985,0.0981,0.0863,0.0787,0.0782,0.067,0.0606,0.0603,0.0535,0.0446,0.038,0.0437,0.0224,0.0511,0.051,0.051,0,0.065,0.075,0.0836,0.0866,0.0947,0.0998,0.1041,0.1082,0.1135,0.1184,0.1236,0.1192,0.1202,0.1075,0.0903,0.0854,0.0819,0.0736,0.0583,0.0576,0.0512,0.0497,0.0369,0.0681,0.0681,0.0681,0.0681,0,0.0741,0.0819,0.0872,0.0926,0.1043,0.1076,0.1196,0.1231,0.1308,0.1423,0.1356,0.1439,0.1259,0.1199,0.0998,0.0826,0.0885,0.0624,0.0585,0.0542,0.0531,0.0321,0.0197,0.068,0.068,0.068,0.068,0,0.0821,0.0848,0.0954,0.1042,0.1076,0.1163,0.1291,0.1377,0.1446,0.1597,0.1631,0.1644,0.1587,0.1377,0.1204,0.0978,0.0669,0.0715,0.066,0.0616,0.0251,0.0135,-0.0026,-0.0121,0.0545,0.0544,0.0543,0,0.0882,0.094,0.1029,0.1077,0.113,0.1247,0.1334,0.143,0.1543,0.1737,0.1836,0.1843,0.1878,0.1596,0.1225,0.0892,0.0659,0.0593,0.0487,0.0253,0.0095,0.0007,-0.0067,0.0424,0.0422,0.042,0.0419,0,0.1004,0.1016,0.1097,0.1174,0.1265,0.1382,0.1532,0.1644,0.1802,0.1963,0.218,0.224,0.1989,0.1665,0.1194,0.0934,0.0424,0.055,0.0338,0.0028,-0.0102,-0.0219,0.0397,0.0406,0.0407,0.0408,0.0409,0.041,0.1085,0.1144,0.1204,0.1294,0.1394,0.1533,0.1661,0.185,0.2079,0.2363,0.241,0.2534,0.2023,0.1399,0.1038,0.0307,0.0333,0.0054,-0.0058,-0.0117,-0.0232,0.0346,0.0294,0.0295,0.0295,0.0296,0.0296,0,0.1154,0.1214,0.1309,0.1419,0.1541,0.157,0.18,0.1962,0.2268,0.2507,0.2702,0.2478,0.1858,0.1204,0.0244,-0.0224,-0.0393,-0.048,-0.0628,-0.0666,-0.0129,-0.0158,-0.0345,-0.0344,-0.0344,-0.0344,-0.0344,-0.0344,0.1191,0.1278,0.1322,0.1521,0.161,0.1796,0.1932,0.2197,0.2405,0.2684,0.2733,0.274,0.2184,0.0546,-0.0535,-0.0766,-0.1078,-0.1169,-0.1278,-0.0946,-0.0905,-0.0866,-0.0922,-0.1265,-0.1266,-0.1778,-0.1784,-0.1788]}],[{"header":{"parameterUnit":"m.s-1","parameterCategory":2,"la1":30.2991,"la2":30.254,"lo1":-89.0895,"lo2":-89.0444,"dy":0.0017,"dx":0.0017,"nx":28,"ny":28,"refTime":"2025-07-08T03:00:00:Z","depth":"2","parameterNumber":2,"parameterNumberName":"U-component_of_CURRENTS"},"data":[0,0,0,0,0,0,0,0,0,0,0,0,0,0,0,0,0,0,0,0,0,0,0,0,0,0,0,0,0,0,0,0,0,0,0,0,0,0,0,0,0,0,0,0,0,0,0,0,0,0,0,0,0,0,0,0,0,0,0.295,0.295,0,0.299,0.2991,0.2992,0.3048,0.3049,0.305,0.305,0.3127,0.3129,0.313,0,0,0,0,0,0,0,0,0,0,0,0,0,0.2898,0.2899,0.2949,0.295,0.295,0.299,0.2991,0.2992,0.3048,0.3049,0.305,0.3051,0.3127,0.3129,0.313,0,0,0,0,0,0,0,0,0,0,0,0,0,0.2931,0.2899,0.2949,0.2981,0.2983,0.299,0.2991,0.2992,0.3048,0.3049,0.305,0.3051,0.3126,0.3128,0.313,0.3124,0,0,0.3137,0.3138,0,0,0,0,0,0,0,0,0.2929,0.2933,0.2976,0.2978,0.2982,0.3013,0.3001,0.3037,0.3048,0.3027,0.305,0.3051,0.3089,0.3095,0.3104,0.3127,0.3131,0.3137,0.3139,0.3139,0.314,0,0,0,0,0,0,0,0.2927,0.2931,0.2969,0.2976,0.2979,0.2985,0.2991,0.3008,0.3055,0.3029,0.3032,0.3031,0.3092,0.3102,0.3106,0.3132,0.3137,0.3139,0.314,0.3141,0.3254,0.3256,0,0,0,0,0,0,0.2915,0.2929,0.2968,0.297,0.2954,0.2985,0.2992,0.3004,0.3054,0.3062,0.303,0.3034,0.3098,0.3104,0.3109,0.3214,0.3139,0.3141,0.3143,0.3252,0.3254,0.3256,0,0,0,0,0,0,0.2914,0.2919,0.2966,0.2947,0.2953,0.2984,0.2998,0.3004,0.3038,0.3055,0.3064,0.3059,0.3099,0.3106,0.3179,0.3214,0.3142,0.3144,0.325,0.3253,0.3255,0.3354,0,0,0,0,0,0,0.2913,0.2919,0.2923,0.2947,0.2954,0.3022,0.2997,0.3004,0.3033,0.3038,0.3082,0.3089,0.31,0.3177,0.3182,0.3215,0.3146,0.3248,0.3251,0.3254,0.3349,0.336,0.3369,0,0,0,0,0,0.2911,0.2924,0.2924,0.2928,0.296,0.3025,0.3032,0.3056,0.3033,0.3082,0.3108,0.3089,0.3199,0.3181,0.3186,0.3221,0.3246,0.325,0.3254,0.3344,0.3357,0.3369,0,0,0,0,0,0,0.2898,0.2931,0.2932,0.2952,0.3004,0.3034,0.3067,0.3065,0.3117,0.3124,0.3124,0.3136,0.3215,0.3199,0.3178,0.3261,0.3213,0.3218,0.328,0.3292,0.3302,0.3304,0.3148,0,0,0,0,0,0.2894,0.2928,0.296,0.2986,0.3013,0.3036,0.3057,0.3083,0.3123,0.3147,0.317,0.3191,0.3228,0.3248,0.3287,0.3327,0.3348,0.3348,0.3358,0.3367,0.3371,0.3475,0.3496,0.3269,0.3269,0.3269,0,0,0.2904,0.2918,0.2942,0.2987,0.3025,0.3062,0.3057,0.312,0.3153,0.3145,0.3212,0.3244,0.3252,0.3322,0.335,0.3315,0.3439,0.3372,0.3379,0.3379,0.3482,0.3504,0.3524,0.3271,0.3271,0.327,0,0,0.2926,0.2953,0.2983,0.3032,0.3088,0.3106,0.3126,0.318,0.3222,0.3283,0.329,0.3347,0.3383,0.3414,0.3421,0.3501,0.3504,0.3503,0.3545,0.3647,0.3667,0.3685,0.373,0.3751,0.3492,0.3492,0.3492,0,0.293,0.297,0.3008,0.3045,0.3091,0.3122,0.3175,0.321,0.3281,0.3337,0.3324,0.341,0.3423,0.3492,0.3525,0.3526,0.3573,0.35,0.3664,0.3682,0.3699,0.374,0.3762,0.3497,0.3497,0.3496,0.3496,0,0.2969,0.3013,0.3049,0.3099,0.3148,0.3226,0.3271,0.3341,0.3369,0.3403,0.3511,0.3533,0.3583,0.3589,0.358,0.3695,0.3687,0.3683,0.3637,0.3728,0.3764,0.3786,0.3505,0.3503,0.3501,0.35,0,0,0.2984,0.306,0.3081,0.3119,0.3204,0.3249,0.3332,0.3434,0.3493,0.3553,0.3652,0.3689,0.3709,0.3718,0.3716,0.3782,0.3932,0.3785,0.3788,0.3836,0.4144,0.4041,0.4053,0.3982,0.3987,0.399,0.4117,0,0.3024,0.3087,0.3127,0.3215,0.3267,0.3348,0.3407,0.3497,0.3583,0.3691,0.3735,0.3829,0.375,0.3806,0.3852,0.3933,0.3996,0.3896,0.4041,0.4043,0.3949,0.4078,0.3746,0.3825,0.4138,0.4142,0.4144,0,0.307,0.3104,0.3186,0.3283,0.3316,0.336,0.3511,0.3578,0.373,0.3816,0.3908,0.3958,0.4053,0.3995,0.4118,0.407,0.4116,0.4152,0.4158,0.4042,0.3982,0.3786,0.3852,0.418,0.4177,0.4174,0.4172,0,0.3072,0.3168,0.3233,0.3273,0.3358,0.3431,0.3492,0.3627,0.3723,0.3932,0.4025,0.4126,0.4215,0.4276,0.431,0.4263,0.4462,0.4403,0.4338,0.4329,0.4059,0.4018,0.4528,0.4528,0.4527,0.4527,0.4527,0,0.3102,0.3157,0.3236,0.3275,0.3358,0.3427,0.3551,0.3657,0.3821,0.3937,0.4074,0.4198,0.431,0.4414,0.4407,0.443,0.4537,0.4374,0.4379,0.4079,0.4041,0.435,0.4327,0.4532,0.4531,0.453,0.4529,0,0.3084,0.3128,0.3225,0.3335,0.3361,0.343,0.3577,0.3644,0.3821,0.3994,0.4082,0.4323,0.4455,0.4498,0.4651,0.456,0.4602,0.4591,0.4203,0.4159,0.4365,0.4346,0.452,0.4518,0.4516,0.4515,0.4514,0,0.307,0.3085,0.3277,0.3293,0.334,0.3437,0.3471,0.3646,0.3728,0.4045,0.4109,0.4364,0.4451,0.4595,0.4546,0.4514,0.4617,0.423,0.4063,0.439,0.4377,0.436,0.4344,0.3736,0.3729,0.3723,0.3718,0,0.2969,0.3063,0.3119,0.326,0.3298,0.3348,0.3431,0.3513,0.3709,0.3836,0.4043,0.4173,0.4342,0.4219,0.4239,0.4177,0.4192,0.4104,0.4611,0.3785,0.366,0.3644,0.3653,0.3663,0.3669,0.3673,0.3676,0.3678,0.2915,0.2893,0.3007,0.3148,0.3218,0.3248,0.3241,0.3328,0.3421,0.3565,0.3798,0.3849,0.3955,0.3789,0.3692,0.3639,0.3889,0.3733,0.3748,0.3771,0.3653,0.3532,0.3486,0.349,0.3494,0.3497,0.35,0,0.2875,0.2799,0.2853,0.296,0.3046,0.3183,0.3183,0.3109,0.3162,0.3299,0.3391,0.3136,0.3096,0.3207,0.3018,0.3017,0.2942,0.2933,0.2811,0.287,0.2921,0.2755,0.2353,0.2349,0.2345,0.2342,0,0,0.2739,0.2734,0.275,0.2798,0.2918,0.2851,0.2854,0.2815,0.2819,0.2738,0.2747,0.2938,0.3109,0.2663,0.2626,0.2472,0.2643,0.2382,0.3312,0.3229,0.3275,0.3407,0.3222,0,0,0,0,0]},{"header":{"parameterUnit":"m.s-1","parameterCategory":2,"la1":30.2991,"la2":30.254,"lo1":-89.0895,"lo2":-89.0444,"dy":0.0017,"dx":0.0017,"nx":28,"ny":28,"refTime":"2025-07-08T03:00:00:Z","depth":"2","parameterNumber":3,"parameterNumberName":"V-component_of_CURRENTS"},"data":[0,0,0,0,0,0,0,0,0,0,0,0,0,0,0,0,0,0,0,0,0,0,0,0,0,0,0,0,0,0,0,0,0,0,0,0,0,0,0,0,0,0,0,0,0,0,0,0,0,0,0,0,0,0,0,0,0,0,-0.0019,-0.0019,0,-0.0056,-0.0057,-0.0057,-0.0087,-0.0088,-0.0088,-0.0088,-0.0163,-0.0165,-0.0167,0,0,0,0,0,0,0,0,0,0,0,0,0,0.0001,0.0001,-0.0019,-0.0019,-0.002,-0.0056,-0.0057,-0.0057,-0.0087,-0.0088,-0.0088,-0.0089,-0.0163,-0.0165,-0.0167,0,0,0,0,0,0,0,0,0,0,0,0,0,-0.0019,0.0001,-0.0019,-0.0039,-0.0042,-0.0056,-0.0057,-0.0057,-0.0087,-0.0088,-0.0088,-0.0089,-0.0162,-0.0165,-0.0167,-0.0173,0,0,-0.0175,-0.0176,0,0,0,0,0,0,0,0,-0.0017,-0.0019,-0.0036,-0.0038,-0.0041,-0.0068,-0.0077,-0.0098,-0.0087,-0.007,-0.0088,-0.0089,-0.0135,-0.014,-0.0145,-0.0176,-0.0179,-0.0175,-0.0177,-0.0178,-0.0178,0,0,0,0,0,0,0,-0.0016,-0.0018,-0.0033,-0.0036,-0.0039,-0.0056,-0.0059,-0.0081,-0.0099,-0.0071,-0.0074,-0.0078,-0.0136,-0.0142,-0.0147,-0.018,-0.0175,-0.0177,-0.0179,-0.018,-0.021,-0.0209,0,0,0,0,0,0,-0.001,-0.0016,-0.0032,-0.0034,-0.003,-0.0056,-0.0059,-0.0058,-0.0098,-0.0105,-0.0078,-0.0079,-0.0137,-0.0144,-0.0149,-0.0135,-0.0178,-0.018,-0.0181,-0.0211,-0.021,-0.0209,0,0,0,0,0,0,-0.0009,-0.0011,-0.0031,-0.0027,-0.0031,-0.0055,-0.0054,-0.0059,-0.0064,-0.0103,-0.011,-0.0079,-0.0138,-0.0146,-0.016,-0.0139,-0.0181,-0.0183,-0.0211,-0.021,-0.0209,-0.0122,0,0,0,0,0,0,-0.0008,-0.001,-0.0006,-0.0026,-0.0031,-0.0025,-0.0054,-0.0059,-0.0067,-0.0069,-0.0106,-0.0114,-0.0139,-0.0155,-0.0162,-0.0143,-0.0185,-0.0212,-0.0211,-0.021,-0.0125,-0.0118,-0.0111,0,0,0,0,0,-0.0007,0.0008,-0.0005,-0.0007,-0.0024,-0.0024,-0.0027,-0.0047,-0.0066,-0.0056,-0.0085,-0.0112,-0.0152,-0.0157,-0.0165,-0.0146,-0.0213,-0.0211,-0.021,-0.0129,-0.0119,-0.0111,0,0,0,0,0,0,0.0018,0.0005,-0.0009,0.0,-0.0007,-0.0029,-0.0023,-0.0043,-0.0057,-0.0062,-0.0104,-0.0112,-0.0118,-0.0145,-0.015,-0.0152,-0.0187,-0.0187,-0.0122,-0.0114,-0.0107,-0.0086,-0.0187,0,0,0,0,0,0.0025,0.0034,0.0016,0.0024,0.0023,-0.0002,-0.0006,-0.0018,-0.0035,-0.0043,-0.007,-0.0098,-0.0117,-0.0126,-0.0148,-0.0148,-0.0179,-0.0142,-0.0135,-0.0129,-0.0117,-0.0137,-0.013,-0.0204,-0.0204,-0.0204,0,0,0.0037,0.003,0.0034,0.003,0.0021,0.0032,-0.0004,-0.0,0.0008,-0.0049,-0.0045,-0.0075,-0.0113,-0.011,-0.0115,-0.0131,-0.0127,-0.0127,-0.0121,-0.0113,-0.0135,-0.0127,-0.0121,-0.0203,-0.0203,-0.0203,0,0,0.007,0.006,0.008,0.0083,0.0077,0.0062,0.0065,0.0048,0.0042,0.0039,0.0002,-0.0016,-0.0045,-0.0063,-0.0078,-0.0047,-0.009,-0.0053,0.0004,-0.0014,-0.0008,-0.0003,-0.0043,-0.0042,-0.0046,-0.0045,-0.0045,0,0.0084,0.0109,0.0087,0.0111,0.0123,0.0078,0.0109,0.0094,0.0075,0.0081,0.0052,0.0017,-0.0022,-0.0017,-0.0005,-0.003,-0.0051,-0.0023,-0.0003,0.0001,0.0005,-0.0038,-0.0038,-0.0041,-0.0042,-0.0042,-0.0042,0,0.0136,0.0159,0.0175,0.0188,0.0194,0.0218,0.0197,0.0195,0.0172,0.0161,0.0159,0.0106,0.0088,0.0072,0.0042,0.0056,0.0028,0.0007,-0.0021,0.0018,-0.003,-0.0032,-0.0035,-0.0036,-0.0038,-0.0039,0,0,0.0165,0.0205,0.0212,0.0244,0.0246,0.0261,0.027,0.028,0.0291,0.0262,0.0291,0.0239,0.021,0.019,0.0146,0.0129,0.0122,0.009,0.0087,0.0057,0.0074,0.0017,0.0009,0.0114,0.0114,0.0115,0.0026,0,0.0217,0.0286,0.0288,0.0354,0.039,0.037,0.0383,0.0382,0.0364,0.0378,0.0331,0.034,0.0254,0.0259,0.0221,0.0159,0.0125,0.0148,0.0035,0.0031,-0.0018,0.0008,0.0033,-0.0045,0.0024,0.0024,0.0024,0,0.0267,0.0313,0.039,0.0449,0.0463,0.0487,0.0511,0.0522,0.0517,0.0514,0.05,0.0466,0.0439,0.0368,0.0253,0.0277,0.0182,0.0119,0.0113,0.0032,-0.0028,-0.0072,-0.0052,0.002,0.002,0.002,0.0021,0,0.0304,0.0385,0.0453,0.0477,0.0524,0.0554,0.0571,0.0567,0.0602,0.0617,0.0651,0.0586,0.0593,0.0461,0.0311,0.0294,0.0187,0.014,-0.001,-0.0017,-0.0033,-0.0042,0.0058,0.0058,0.0058,0.0059,0.0059,0,0.0356,0.0413,0.0481,0.0522,0.0608,0.0613,0.0681,0.0689,0.0721,0.08,0.0731,0.0796,0.0626,0.0543,0.0365,0.0173,0.0215,0.0004,-0.0035,-0.0005,-0.0009,0.0019,0.0015,0.0055,0.0056,0.0057,0.0057,0,0.0366,0.0418,0.0509,0.059,0.0629,0.0684,0.0777,0.0814,0.084,0.0944,0.0975,0.0973,0.0871,0.0648,0.0463,0.0265,0.0075,-0.0006,0.0029,-0.0006,-0.0138,-0.0136,-0.0192,-0.0194,-0.0196,-0.0198,-0.02,0,0.0371,0.0417,0.0555,0.0631,0.0676,0.0765,0.0822,0.0875,0.0934,0.1074,0.114,0.1113,0.1103,0.0769,0.0428,0.0076,0.0061,-0.0118,-0.0162,-0.0126,-0.016,-0.0154,-0.0149,-0.0156,-0.0157,-0.0158,-0.0159,0,0.0373,0.0422,0.0501,0.0646,0.0746,0.0861,0.0961,0.1047,0.1134,0.1265,0.1437,0.1465,0.1155,0.0852,0.0358,0.0126,-0.0072,-0.0149,-0.0093,-0.01,-0.0101,-0.0131,-0.0126,-0.0166,-0.0166,-0.0165,-0.0165,-0.0164,0.0345,0.0425,0.0524,0.0659,0.0765,0.0909,0.1055,0.1207,0.1386,0.1599,0.1611,0.1657,0.1287,0.0659,0.0268,-0.0147,-0.0142,-0.0278,-0.0272,-0.0265,-0.0248,-0.0253,-0.0345,-0.0346,-0.0346,-0.0346,-0.0346,0,0.0286,0.0393,0.0531,0.0699,0.0799,0.087,0.1102,0.1291,0.1578,0.1727,0.187,0.1521,0.1151,0.0728,0.0098,-0.0287,-0.0303,-0.0385,-0.0308,-0.0299,-0.0291,-0.0272,-0.0378,-0.0379,-0.0379,-0.038,0,0,0.0264,0.036,0.0468,0.0645,0.0779,0.0993,0.116,0.1502,0.1694,0.189,0.1915,0.1799,0.1281,0.0821,0.0311,-0.0016,-0.0068,-0.0089,-0.0029,0.0131,0.0144,-0.0202,-0.016,0,0,0,0,0]}],[{"header":{"parameterUnit":"m.s-1","parameterCategory":2,"la1":30.2991,"la2":30.254,"lo1":-89.0895,"lo2":-89.0444,"dy":0.0017,"dx":0.0017,"nx":28,"ny":28,"refTime":"2025-07-08T03:00:00:Z","depth":"4","parameterNumber":2,"parameterNumberName":"U-component_of_CURRENTS"},"data":[0,0,0,0,0,0,0,0,0,0,0,0,0,0,0,0,0,0,0,0,0,0,0,0,0,0,0,0,0,0,0,0,0,0,0,0,0,0,0,0,0,0,0,0,0,0,0,0,0,0,0,0,0,0,0,0,0,0,0.1619,0.162,0,0.1669,0.167,0.167,0.1716,0.1717,0.1718,0.1719,0.1788,0.1789,0.1789,0,0,0,0,0,0,0,0,0,0,0,0,0,0.1544,0.1545,0.1619,0.162,0.1621,0.1669,0.167,0.167,0.1716,0.1717,0.1719,0.172,0.1787,0.1788,0.1789,0,0,0,0,0,0,0,0,0,0,0,0,0,0.1579,0.1545,0.1619,0.1654,0.1658,0.1669,0.167,0.167,0.1716,0.1717,0.1719,0.172,0.1787,0.1788,0.179,0.1766,0,0,0.1794,0.1794,0,0,0,0,0,0,0,0,0.1577,0.1581,0.1648,0.1652,0.1656,0.1693,0.1669,0.1705,0.1715,0.1688,0.1719,0.1721,0.176,0.1763,0.1762,0.177,0.1772,0.1794,0.1794,0.1795,0.1795,0,0,0,0,0,0,0,0.1574,0.1579,0.1634,0.1649,0.1654,0.1661,0.1667,0.1675,0.1711,0.1691,0.1696,0.1709,0.1762,0.176,0.1764,0.1773,0.1794,0.1795,0.1796,0.1796,0.1937,0.194,0,0,0,0,0,0,0.1578,0.1577,0.1632,0.1636,0.1625,0.1661,0.1668,0.1675,0.1711,0.1719,0.1707,0.1711,0.1757,0.1762,0.1767,0.1856,0.1795,0.1796,0.1797,0.1934,0.1938,0.1941,0,0,0,0,0,0,0.1576,0.1582,0.163,0.1612,0.1619,0.1662,0.1669,0.1675,0.1716,0.1724,0.1732,0.1747,0.1759,0.1765,0.181,0.1855,0.1797,0.1798,0.193,0.1935,0.1939,0.1962,0,0,0,0,0,0,0.1573,0.158,0.1603,0.1612,0.1621,0.1663,0.1668,0.1675,0.1722,0.1728,0.176,0.1765,0.1761,0.1808,0.1811,0.1856,0.1799,0.1927,0.1932,0.1938,0.1958,0.1967,0.1975,0,0,0,0,0,0.157,0.1586,0.1603,0.1612,0.1644,0.1664,0.1669,0.17,0.1723,0.1742,0.177,0.1766,0.1848,0.181,0.1814,0.186,0.1924,0.1931,0.1937,0.1954,0.1965,0.1975,0,0,0,0,0,0,0.1564,0.1593,0.1612,0.1638,0.1665,0.1675,0.1702,0.1722,0.1757,0.1778,0.1781,0.1788,0.1856,0.1858,0.1818,0.1925,0.1895,0.1902,0.1907,0.1917,0.1926,0.1954,0.18,0,0,0,0,0,0.1573,0.1596,0.1623,0.1647,0.1665,0.1691,0.1712,0.1736,0.1761,0.178,0.1799,0.1837,0.1878,0.1897,0.1929,0.1965,0.1991,0.2009,0.2018,0.2025,0.2056,0.2115,0.2131,0.1963,0.1963,0.1963,0,0,0.1571,0.1598,0.1608,0.1648,0.1672,0.1697,0.1707,0.1751,0.1782,0.178,0.1834,0.1867,0.1899,0.1951,0.1983,0.196,0.2088,0.2033,0.2038,0.2066,0.2124,0.214,0.2154,0.1967,0.1966,0.1966,0,0,0.1577,0.1612,0.1634,0.1664,0.1719,0.1729,0.1752,0.1786,0.182,0.1874,0.1891,0.195,0.2,0.2024,0.2046,0.2124,0.2137,0.2151,0.2203,0.2259,0.2273,0.2285,0.2334,0.2351,0.2145,0.2146,0.2146,0,0.1584,0.1611,0.1643,0.1681,0.171,0.1748,0.1778,0.181,0.1857,0.1891,0.191,0.2024,0.204,0.2108,0.2146,0.2142,0.218,0.2147,0.2267,0.228,0.2292,0.234,0.2358,0.2147,0.2147,0.2147,0.2147,0,0.1602,0.1637,0.1655,0.1709,0.1744,0.1777,0.1826,0.1866,0.1919,0.1959,0.2065,0.2101,0.2176,0.2191,0.2195,0.2296,0.2298,0.227,0.2229,0.231,0.2356,0.2374,0.215,0.215,0.2149,0.2149,0,0,0.1571,0.1651,0.1661,0.1693,0.1767,0.179,0.1851,0.191,0.1964,0.2047,0.2132,0.2217,0.2269,0.2302,0.2318,0.2367,0.2475,0.2369,0.2371,0.2399,0.2615,0.2416,0.2416,0.247,0.2474,0.2476,0.2609,0,0.1576,0.164,0.168,0.1732,0.1764,0.1822,0.1872,0.1944,0.2015,0.2103,0.2193,0.2289,0.2302,0.2358,0.2417,0.247,0.2528,0.2443,0.2552,0.2556,0.2352,0.2432,0.2488,0.2622,0.2627,0.263,0.2632,0,0.1559,0.1621,0.1679,0.1752,0.1773,0.1817,0.1908,0.196,0.2086,0.2161,0.2283,0.236,0.2486,0.2475,0.2628,0.2581,0.2624,0.2649,0.2654,0.2477,0.239,0.2531,0.2665,0.2662,0.266,0.2657,0.2655,0,0.1489,0.1591,0.1641,0.1674,0.1779,0.1826,0.1879,0.199,0.2047,0.2215,0.2295,0.245,0.2557,0.2643,0.2726,0.27,0.2872,0.2823,0.2685,0.2671,0.2798,0.2783,0.2935,0.2935,0.2935,0.2934,0.2934,0,0.1424,0.1458,0.163,0.165,0.173,0.1821,0.1896,0.1968,0.2106,0.2182,0.2338,0.2428,0.2614,0.2724,0.2773,0.2789,0.2916,0.2723,0.2698,0.2805,0.279,0.281,0.2793,0.2939,0.2938,0.2937,0.2936,0,0.1271,0.1389,0.1444,0.161,0.1684,0.1728,0.1878,0.1912,0.208,0.2189,0.2257,0.2466,0.2613,0.2742,0.2893,0.2827,0.2861,0.2831,0.2962,0.2937,0.2617,0.2601,0.2694,0.2688,0.2683,0.2679,0.2676,0,0.1178,0.1213,0.1397,0.1456,0.1529,0.1647,0.1707,0.1877,0.1927,0.2176,0.2209,0.2432,0.2551,0.2627,0.2759,0.2836,0.2801,0.2793,0.2691,0.2629,0.2597,0.2588,0.2579,0.2668,0.2667,0.2665,0.2664,0,0.1012,0.1093,0.1143,0.1282,0.1371,0.1455,0.1576,0.1624,0.1819,0.1995,0.214,0.2247,0.2405,0.2533,0.2616,0.2653,0.2779,0.2741,0.275,0.2654,0.2599,0.2569,0.2566,0.2647,0.2649,0.2651,0.2652,0,0.088,0.0876,0.0982,0.1081,0.1179,0.1243,0.1337,0.1459,0.1566,0.1876,0.1923,0.2166,0.2387,0.2438,0.2503,0.2536,0.2496,0.24,0.2427,0.2447,0.2299,0.2188,0.2111,0,0,0,0,0,0.0767,0.0756,0.0798,0.0889,0.0959,0.1055,0.1235,0.1345,0.1585,0.1632,0.179,0.1933,0.208,0.2205,0.2194,0.2357,0.2473,0.2325,0.2366,0.2552,0.2572,0.2418,0,0,0,0,0,0,0.0684,0.0701,0.0726,0.0708,0.075,0.0829,0.0951,0.1124,0.1197,0.1467,0.1578,0.1773,0.1959,0.2068,0.2142,0.2175,0.2151,0.2482,0.2476,0.2541,0.2559,0.2575,0.2423,0,0,0,0,0]},{"header":{"parameterUnit":"m.s-1","parameterCategory":2,"la1":30.2991,"la2":30.254,"lo1":-89.0895,"lo2":-89.0444,"dy":0.0017,"dx":0.0017,"nx":28,"ny":28,"refTime":"2025-07-08T03:00:00:Z","depth":"4","parameterNumber":3,"parameterNumberName":"V-component_of_CURRENTS"},"data":[0,0,0,0,0,0,0,0,0,0,0,0,0,0,0,0,0,0,0,0,0,0,0,0,0,0,0,0,0,0,0,0,0,0,0,0,0,0,0,0,0,0,0,0,0,0,0,0,0,0,0,0,0,0,0,0,0,0,-0.0019,-0.0019,0,-0.0044,-0.0044,-0.0045,-0.0072,-0.0072,-0.0073,-0.0073,-0.0134,-0.0135,-0.0136,0,0,0,0,0,0,0,0,0,0,0,0,0,-0.0017,-0.0017,-0.0019,-0.0019,-0.0019,-0.0044,-0.0044,-0.0045,-0.0072,-0.0072,-0.0073,-0.0073,-0.0133,-0.0135,-0.0136,0,0,0,0,0,0,0,0,0,0,0,0,0,-0.0029,-0.0017,-0.0019,-0.0035,-0.0037,-0.0044,-0.0044,-0.0045,-0.0072,-0.0072,-0.0073,-0.0073,-0.0133,-0.0135,-0.0137,-0.0139,0,0,-0.0143,-0.0143,0,0,0,0,0,0,0,0,-0.0028,-0.0029,-0.0032,-0.0034,-0.0036,-0.0055,-0.0066,-0.0078,-0.0072,-0.006,-0.0073,-0.0074,-0.011,-0.0113,-0.0118,-0.0142,-0.0145,-0.0143,-0.0144,-0.0145,-0.0145,0,0,0,0,0,0,0,-0.0027,-0.0028,-0.0029,-0.0033,-0.0035,-0.0049,-0.0051,-0.0068,-0.0083,-0.0061,-0.0062,-0.0064,-0.0111,-0.0116,-0.012,-0.0146,-0.0143,-0.0145,-0.0146,-0.0146,-0.019,-0.019,0,0,0,0,0,0,-0.002,-0.0027,-0.0029,-0.003,-0.0032,-0.0049,-0.0051,-0.0049,-0.0082,-0.0087,-0.0063,-0.0065,-0.0112,-0.0117,-0.0122,-0.0125,-0.0145,-0.0147,-0.0148,-0.019,-0.019,-0.019,0,0,0,0,0,0,-0.002,-0.002,-0.0028,-0.0029,-0.0031,-0.0048,-0.0045,-0.0049,-0.0055,-0.0083,-0.0089,-0.0065,-0.0113,-0.0119,-0.0131,-0.0128,-0.0148,-0.0149,-0.019,-0.019,-0.019,-0.0133,0,0,0,0,0,0,-0.002,-0.002,-0.0017,-0.0028,-0.003,-0.0025,-0.0045,-0.0049,-0.0054,-0.0057,-0.0087,-0.0093,-0.0114,-0.0128,-0.0133,-0.0131,-0.0151,-0.019,-0.019,-0.019,-0.0135,-0.0131,-0.0128,0,0,0,0,0,-0.002,-0.0007,-0.0016,-0.0016,-0.0025,-0.0024,-0.0026,-0.0041,-0.0054,-0.005,-0.0071,-0.0092,-0.0132,-0.0129,-0.0135,-0.0134,-0.019,-0.019,-0.019,-0.0137,-0.0132,-0.0128,0,0,0,0,0,0,-0.0006,-0.0009,-0.0019,-0.0009,-0.0015,-0.0028,-0.0026,-0.0038,-0.0051,-0.0056,-0.0086,-0.0093,-0.0106,-0.0127,-0.0123,-0.0148,-0.0167,-0.0168,-0.0125,-0.012,-0.0117,-0.0114,-0.0153,0,0,0,0,0,-0.0001,0.0006,-0.0002,0.0004,0.0004,-0.0012,-0.0014,-0.0024,-0.0037,-0.0043,-0.0063,-0.0089,-0.0111,-0.012,-0.0142,-0.0149,-0.0184,-0.0155,-0.0151,-0.0148,-0.0151,-0.0198,-0.0199,-0.019,-0.019,-0.019,0,0,0.0004,0.0004,0.0007,0.0008,0.0001,0.0008,-0.0014,-0.0013,-0.0013,-0.0048,-0.0053,-0.0077,-0.0111,-0.012,-0.0129,-0.0136,-0.0168,-0.0148,-0.0145,-0.0149,-0.0198,-0.0199,-0.02,-0.019,-0.019,-0.019,0,0,0.0025,0.002,0.0034,0.0035,0.0032,0.0023,0.0025,0.0015,0.0005,-0.0001,-0.003,-0.0051,-0.0076,-0.01,-0.0117,-0.0108,-0.0149,-0.0115,-0.009,-0.0135,-0.0136,-0.0138,-0.0176,-0.0181,-0.011,-0.011,-0.0109,0,0.0031,0.0049,0.0038,0.0053,0.0059,0.0033,0.0051,0.0036,0.0022,0.0015,0.0003,-0.0044,-0.0071,-0.0091,-0.0087,-0.0101,-0.0129,-0.0099,-0.013,-0.0132,-0.0135,-0.0174,-0.018,-0.0107,-0.0107,-0.0107,-0.0108,0,0.006,0.0076,0.0086,0.0095,0.01,0.0111,0.0095,0.0088,0.007,0.0055,0.0032,-0.0005,-0.0032,-0.0045,-0.0062,-0.0089,-0.0104,-0.0121,-0.0138,-0.0132,-0.0174,-0.0182,-0.0103,-0.0104,-0.0105,-0.0105,0,0,0.0073,0.0102,0.0105,0.013,0.0126,0.0142,0.0131,0.0125,0.0124,0.0092,0.0086,0.0042,0.002,-0.0001,-0.003,-0.0068,-0.0107,-0.0093,-0.0097,-0.0126,-0.0202,-0.0205,-0.0214,-0.0126,-0.0127,-0.0128,-0.0221,0,0.01,0.0149,0.0148,0.0194,0.0223,0.02,0.0202,0.0189,0.0161,0.0147,0.0091,0.0076,0.0037,0.0031,-0.0016,-0.0082,-0.0126,-0.008,-0.0209,-0.0213,-0.0212,-0.0223,-0.0132,-0.0227,-0.0229,-0.0231,-0.0232,0,0.0129,0.0164,0.0215,0.0265,0.0275,0.0293,0.0297,0.0293,0.0248,0.0229,0.0185,0.014,0.0083,0.0049,-0.0076,-0.0042,-0.0119,-0.0177,-0.0183,-0.0212,-0.0231,-0.0239,-0.0247,-0.0246,-0.0244,-0.0243,-0.0243,0,0.0164,0.0215,0.0263,0.0278,0.0317,0.0335,0.0349,0.0322,0.0334,0.0278,0.0279,0.0188,0.0161,0.0043,-0.0082,-0.0079,-0.0224,-0.0238,-0.0319,-0.032,-0.0314,-0.0311,-0.0338,-0.0338,-0.0338,-0.0338,-0.0337,0,0.0204,0.0249,0.0291,0.0325,0.0391,0.0393,0.0447,0.0426,0.0417,0.0441,0.0335,0.0322,0.0159,0.0057,-0.0071,-0.0217,-0.0222,-0.0321,-0.0347,-0.0286,-0.028,-0.0319,-0.0316,-0.0341,-0.034,-0.034,-0.0339,0,0.0251,0.0264,0.0337,0.0393,0.0415,0.0465,0.054,0.0573,0.0541,0.0561,0.0552,0.0431,0.0287,0.0113,-0.0079,-0.0185,-0.0336,-0.0389,-0.0307,-0.0326,-0.0405,-0.0398,-0.0489,-0.049,-0.0491,-0.0492,-0.0492,0,0.028,0.0321,0.0401,0.0446,0.0481,0.056,0.0616,0.0633,0.067,0.063,0.0644,0.0508,0.0408,0.0139,-0.0064,-0.0324,-0.0359,-0.0438,-0.0433,-0.0406,-0.0423,-0.0414,-0.0406,-0.0494,-0.0494,-0.0494,-0.0494,0,0.0353,0.0375,0.0441,0.0534,0.0606,0.0693,0.0772,0.0812,0.0819,0.0799,0.0732,0.0566,0.0397,0.0156,-0.005,-0.0237,-0.0389,-0.0448,-0.0447,-0.0442,-0.0413,-0.0426,-0.0417,-0.0497,-0.0497,-0.0496,-0.0496,0,0.0411,0.0467,0.0544,0.0626,0.0714,0.0789,0.0832,0.0879,0.091,0.0858,0.0834,0.0622,0.0498,0.02,0.001,-0.0178,-0.0228,-0.0282,-0.0291,-0.0291,-0.0212,-0.0144,-0.0172,0,0,0,0,0,0.0468,0.0535,0.0626,0.0717,0.0805,0.0847,0.0919,0.0946,0.0956,0.093,0.0886,0.0722,0.0414,0.0266,0.0081,-0.0019,-0.027,-0.0245,-0.0337,-0.0512,-0.0509,-0.0453,0,0,0,0,0,0,0.0507,0.0604,0.0643,0.0773,0.0839,0.0943,0.0983,0.0987,0.097,0.0937,0.0778,0.0683,0.0385,0.0532,0.0082,0.0019,-0.0065,-0.0394,-0.0399,-0.0514,-0.0511,-0.0509,-0.0449,0,0,0,0,0]}]]